OH6LSL Weather Reports


time (UTC)temp
C
wind
direction
speed
KPH
gust
KPH
rain 1hr
cm
rain 24hr
cm
rain mn
cm
humidity
%
barometer
mb
20260506080446 7 257 0.0 9.7 0.00 0.00 0.00 45 1005.2
20260506073442 6 234 0.0 11.3 0.00 0.00 0.00 49 1004.9
20260506072501 6 188 1.6 11.3 0.00 0.00 0.00 51 1004.6
20260506071443 6 232 4.8 16.1 0.00 0.00 0.00 50 1004.5
20260506070451 5 246 1.6 16.1 0.00 0.00 0.00 51 1004.5
20260506062438 5 200 0.0 8.0 0.00 0.00 0.00 52 1003.9
20260506061440 5 254 1.6 11.3 0.00 0.00 0.00 53 1003.7
20260506060450 5 272 0.0 3.2 0.00 0.00 0.00 55 1003.7
20260506050440 3 217 1.6 8.0 0.00 0.00 0.00 56 1002.9
20260506044442 3 240 1.6 16.1 0.00 0.00 0.00 58 1002.8
20260506043451 3 200 4.8 9.7 0.00 0.00 0.00 57 1002.8
20260506042432 3 253 0.0 8.0 0.00 0.00 0.00 58 1002.7
20260506041436 3 256 3.2 9.7 0.00 0.00 0.00 59 1002.5
20260506040446 3 243 0.0 11.3 0.00 0.00 0.00 59 1002.5
20260506035446 3 239 0.0 8.0 0.00 0.00 0.00 59 1002.3
20260506034434 3 223 0.0 9.7 0.00 0.00 0.00 59 1002.3
20260506033444 3 220 1.6 12.9 0.00 0.00 0.00 59 1002.3
20260506032445 2 241 4.8 16.1 0.00 0.00 0.00 59 1002.2
20260506031450 2 181 0.0 11.3 0.00 0.00 0.00 60 1002.0
20260506030441 2 251 1.6 12.9 0.00 0.00 0.00 59 1002.0
20260506025442 2 243 1.6 8.0 0.00 0.00 0.00 61 1001.9
20260506024459 2 223 4.8 9.7 0.00 0.00 0.00 61 1001.8
20260506023449 2 232 3.2 12.9 0.00 0.00 0.00 62 1001.8
20260506022451 2 198 0.0 8.0 0.00 0.00 0.00 62 1001.8
20260506021434 2 263 3.2 9.7 0.00 0.00 0.00 61 1001.7
20260506020444 2 227 3.2 11.3 0.00 0.00 0.00 61 1001.7
20260506015446 2 239 3.2 12.9 0.00 0.00 0.00 60 1001.6
20260506014445 2 216 0.0 9.7 0.00 0.00 0.00 61 1001.4
20260506013437 2 220 1.6 12.9 0.00 0.00 0.00 60 1001.4
20260506012442 2 199 3.2 9.7 0.00 0.00 0.00 60 1001.2
20260506011443 2 246 4.8 11.3 0.00 0.00 0.00 60 1001.1
20260506010434 2 224 1.6 11.3 0.00 0.00 0.00 60 1001.1
20260506005436 2 254 3.2 12.9 0.00 0.00 0.00 60 1001.0
20260506004455 2 265 3.2 11.3 0.00 0.00 0.00 60 1000.9
20260506003508 2 219 3.2 19.3 0.00 0.00 0.00 60 1000.9
20260506002449 2 212 1.6 11.3 0.00 0.00 0.00 60 1000.8
20260506001434 2 196 0.0 16.1 0.00 0.00 0.00 59 1000.7
20260506000445 2 244 0.0 20.9 0.00 0.00 0.00 60 1000.7
20260505235444 3 268 0.0 11.3 0.00 0.00 0.00 59 1000.6
20260505234445 2 237 0.0 8.0 0.00 0.00 0.00 59 1000.5
20260505233434 3 236 1.6 14.5 0.00 0.00 0.00 58 1000.5
20260505232438 2 240 1.6 4.8 0.00 0.00 0.00 58 1000.4
20260505231440 3 250 0.0 9.7 0.00 0.00 0.00 58 1000.4
20260505230448 3 222 0.0 8.0 0.00 0.00 0.00 55 1000.4
20260505225451 3 243 4.8 11.3 0.00 0.00 0.00 53 1000.4
20260505224431 3 237 3.2 11.3 0.00 0.00 0.00 53 1000.3
20260505223444 3 236 0.0 8.0 0.00 0.00 0.00 53 1000.3
20260505222448 3 222 3.2 11.3 0.00 0.00 0.00 54 1000.3
20260505221449 3 241 0.0 12.9 0.00 0.00 0.00 55 1000.3
20260505220441 3 160 0.0 11.3 0.00 0.00 0.00 56 1000.3
20260505215440 3 243 0.0 9.7 0.00 0.00 0.00 57 1000.2
20260505214436 2 237 0.0 3.2 0.00 0.00 0.00 58 1000.2
20260505213446 2 237 4.8 11.3 0.00 0.00 0.00 59 1000.2
20260505212432 2 234 0.0 0.0 0.00 0.00 0.00 60 1000.0
20260505211432 2 234 0.0 0.0 0.00 0.00 0.00 60 999.9
20260505210442 2 234 0.0 1.6 0.00 0.00 0.00 60 999.9
20260505205442 2 227 0.0 3.2 0.00 0.00 0.00 62 999.9
20260505204445 2 227 0.0 0.0 0.00 0.00 0.00 63 999.8
20260505203438 2 227 0.0 0.0 0.00 0.00 0.00 64 999.8
20260505202441 2 227 0.0 0.0 0.00 0.00 0.00 63 999.7
20260505201440 2 227 0.0 1.6 0.00 0.00 0.00 62 999.7
20260505200448 3 227 0.0 0.0 0.00 0.00 0.00 59 999.7
20260505195451 3 227 0.0 0.0 0.00 0.00 0.00 57 999.7
20260505194432 3 227 0.0 0.0 0.00 0.00 0.00 56 999.6
20260505193445 3 227 0.0 0.0 0.00 0.00 0.00 54 999.6
20260505192448 4 227 0.0 0.0 0.00 0.00 0.00 52 999.6
20260505191508 5 229 0.0 0.0 0.00 0.00 0.00 51 999.5
20260505190439 5 229 0.0 4.8 0.00 0.00 0.00 49 999.5
20260505185440 5 261 1.6 6.4 0.00 0.00 0.00 48 999.3
20260505184441 5 208 0.0 8.0 0.00 0.00 0.00 47 999.2
20260505183431 5 200 4.8 12.9 0.00 0.00 0.00 44 999.2
20260505182455 6 233 0.0 4.8 0.00 0.00 0.00 45 999.0
20260505181435 6 205 0.0 8.0 0.00 0.00 0.00 43 998.9
20260505180442 6 202 0.0 6.4 0.00 0.00 0.00 43 998.9
20260505175445 6 210 0.0 6.4 0.00 0.00 0.00 40 998.8
20260505174446 7 215 1.6 6.4 0.00 0.00 0.00 39 998.6
20260505173439 7 280 0.0 3.2 0.00 0.00 0.00 42 998.6
20260505172439 7 213 3.2 9.7 0.00 0.00 0.00 39 998.6
20260505171500 6 152 0.0 8.0 0.00 0.00 0.00 44 998.6
20260505170452 6 244 1.6 9.7 0.00 0.00 0.00 45 998.6
20260505165451 6 244 0.0 8.0 0.00 0.00 0.00 44 998.5
20260505164450 7 222 0.0 4.8 0.00 0.00 0.00 45 998.5
20260505163440 7 171 1.6 8.0 0.00 0.00 0.00 42 998.5
20260505162502 7 254 0.0 0.0 0.00 0.00 0.00 45 998.5
20260505161442 7 254 1.6 8.0 0.00 0.00 0.00 46 998.4
20260505160433 7 222 0.0 11.3 0.00 0.00 0.00 47 998.4
20260505152453 8 222 1.6 11.3 0.00 0.00 0.00 41 998.2
20260505151452 8 217 1.6 11.3 0.00 0.00 0.00 43 998.1
20260505150441 8 191 1.6 16.1 0.00 0.00 0.00 43 998.1
20260505140501 9 219 3.2 12.9 0.00 0.00 0.00 34 997.8
20260505124439 9 243 1.6 11.3 0.00 0.00 0.00 34 997.2
20260505123450 8 268 3.2 9.7 0.00 0.00 0.00 33 997.2
20260505122510 8 241 4.8 19.3 0.00 0.00 0.00 34 997.1
20260505121449 8 282 1.6 9.7 0.00 0.00 0.00 30 997.1
20260505120444 8 261 4.8 12.9 0.00 0.00 0.00 33 997.1
20260505115444 8 174 4.8 11.3 0.00 0.00 0.00 34 997.0
20260505114507 8 240 6.4 12.9 0.00 0.00 0.00 36 996.8
20260505113440 9 189 6.4 16.1 0.00 0.00 0.00 36 996.8
20260505112504 8 258 8.0 16.1 0.00 0.00 0.00 36 996.7
20260505111443 8 222 6.4 17.7 0.00 0.00 0.00 35 996.7
20260505110448 8 311 4.8 12.9 0.00 0.00 0.00 41 996.7
20260505101504 8 271 0.0 9.7 0.00 0.00 0.00 40 996.1
20260505100433 7 268 0.0 12.9 0.00 0.00 0.00 46 996.1
20260505095451 7 312 1.6 16.1 0.00 0.00 0.00 45 996.0
20260505094454 7 246 4.8 27.4 0.00 0.00 0.00 44 995.9
20260505093503 6 246 4.8 16.1 0.00 0.00 0.00 43 995.9
20260505092442 6 264 0.0 11.3 0.00 0.00 0.00 49 995.7
20260505091446 6 246 3.2 12.9 0.00 0.00 0.00 48 995.6
20260505090437 5 246 3.2 12.9 0.00 0.00 0.00 50 995.6
20260505085459 5 234 0.0 11.3 0.00 0.00 0.00 51 995.6
20260505084435 5 251 4.8 16.1 0.00 0.00 0.00 52 995.3
20260505083449 5 244 4.8 19.3 0.00 0.00 0.00 50 995.3
20260505082450 5 226 3.2 16.1 0.00 0.00 0.00 51 995.1
20260505081452 5 236 1.6 11.3 0.00 0.00 0.00 54 994.9